| time (UTC) | temp F | wind direction | speed MPH | gust MPH | rain 1hr in | rain 24hr in | rain mn in | humidity % | barometer mb |
| 20260506232753 | 72 | 81 | 6.0 | 26.0 | 0.00 | 0.00 | 0.00 | 53 | 1017.8 |
| 20260506232112 | 71 | 74 | 9.0 | 19.0 | 0.00 | 0.00 | 0.00 | 54 | 1017.8 |
| 20260506231433 | 71 | 74 | 8.0 | 20.0 | 0.00 | 0.00 | 0.00 | 52 | 1017.8 |
| 20260506230753 | 71 | 71 | 8.0 | 22.0 | 0.00 | 0.00 | 0.00 | 51 | 1017.8 |
| 20260506230113 | 72 | 81 | 9.0 | 27.0 | 0.00 | 0.00 | 0.00 | 50 | 1017.8 |
| 20260506225432 | 71 | 80 | 7.0 | 27.0 | 0.00 | 0.00 | 0.00 | 52 | 1017.8 |
| 20260506224752 | 70 | 7 | 12.0 | 12.0 | 0.00 | 0.00 | 0.00 | 55 | 1018.2 |
| 20260506224002 | 69 | 57 | 7.0 | 16.0 | 0.00 | 0.00 | 0.00 | 53 | 1018.2 |
| 20260506223323 | 70 | 60 | 6.0 | 6.0 | 0.00 | 0.00 | 0.00 | 52 | 1018.2 |
| 20260506222534 | 71 | 80 | 9.0 | 25.0 | 0.00 | 0.00 | 0.00 | 51 | 1018.5 |
| 20260506221854 | 70 | 74 | 9.0 | 25.0 | 0.00 | 0.00 | 0.00 | 53 | 1018.5 |
| 20260506221214 | 71 | 80 | 7.0 | 27.0 | 0.00 | 0.00 | 0.00 | 49 | 1018.5 |
| 20260506220534 | 72 | 72 | 8.0 | 30.0 | 0.00 | 0.00 | 0.00 | 50 | 1018.9 |
| 20260506215854 | 71 | 75 | 12.0 | 30.0 | 0.00 | 0.00 | 0.00 | 50 | 1018.9 |
| 20260506215214 | 72 | 74 | 8.0 | 25.0 | 0.00 | 0.00 | 0.00 | 50 | 1018.9 |
| 20260506214534 | 72 | 94 | 11.0 | 25.0 | 0.00 | 0.00 | 0.00 | 49 | 1018.9 |
| 20260506213854 | 72 | 69 | 9.0 | 25.0 | 0.00 | 0.00 | 0.00 | 50 | 1018.9 |
| 20260506213215 | 72 | 81 | 8.0 | 24.0 | 0.00 | 0.00 | 0.00 | 49 | 1018.9 |
| 20260506212535 | 72 | 80 | 8.0 | 22.0 | 0.00 | 0.00 | 0.00 | 50 | 1018.9 |
| 20260506211855 | 72 | 79 | 8.0 | 24.0 | 0.00 | 0.00 | 0.00 | 48 | 1018.9 |
| 20260506211215 | 71 | 83 | 7.0 | 24.0 | 0.00 | 0.00 | 0.00 | 49 | 1018.9 |
| 20260506210535 | 71 | 75 | 9.0 | 28.0 | 0.00 | 0.00 | 0.00 | 53 | 1018.9 |
| 20260506205855 | 71 | 221 | 21.0 | 28.0 | 0.00 | 0.00 | 0.00 | 50 | 1018.9 |
| 20260506205215 | 70 | 48 | 12.0 | 6.0 | 0.00 | 0.00 | 0.00 | 52 | 1019.2 |
| 20260506204427 | 70 | 93 | 11.0 | 27.0 | 0.00 | 0.00 | 0.00 | 51 | 1019.2 |
| 20260506203747 | 70 | 82 | 7.0 | 30.0 | 0.00 | 0.00 | 0.00 | 50 | 1019.2 |
| 20260506203108 | 69 | 50 | 15.0 | 7.0 | 0.00 | 0.00 | 0.00 | 54 | 1019.2 |
| 20260506202319 | 69 | 46 | 6.0 | 27.0 | 0.00 | 0.00 | 0.00 | 52 | 1019.2 |
| 20260506201639 | 69 | 4 | 4.0 | 14.0 | 0.00 | 0.00 | 0.00 | 54 | 1019.6 |
| 20260506200959 | 68 | 0 | 2.0 | 13.0 | 0.00 | 0.00 | 0.00 | 54 | 1019.6 |
| 20260506200319 | 69 | 25 | 5.0 | 2.0 | 0.00 | 0.00 | 0.00 | 52 | 1019.6 |
| 20260506195531 | 69 | 43 | 8.0 | 26.0 | 0.00 | 0.00 | 0.00 | 54 | 1019.9 |
| 20260506194851 | 68 | 50 | 8.0 | 26.0 | 0.00 | 0.00 | 0.00 | 57 | 1019.9 |
| 20260506194211 | 68 | 47 | 12.0 | 23.0 | 0.00 | 0.00 | 0.00 | 56 | 1019.9 |
| 20260506193531 | 69 | 67 | 11.0 | 27.0 | 0.00 | 0.00 | 0.00 | 55 | 1019.9 |
| 20260506192851 | 68 | 45 | 13.0 | 26.0 | 0.00 | 0.00 | 0.00 | 56 | 1019.9 |
| 20260506192210 | 69 | 57 | 9.0 | 27.0 | 0.00 | 0.00 | 0.00 | 55 | 1019.9 |
| 20260506191530 | 69 | 65 | 13.0 | 27.0 | 0.00 | 0.00 | 0.00 | 56 | 1019.9 |
| 20260506190851 | 68 | 49 | 11.0 | 27.0 | 0.00 | 0.00 | 0.00 | 56 | 1019.9 |
| 20260506190211 | 68 | 59 | 12.0 | 27.0 | 0.00 | 0.00 | 0.00 | 58 | 1020.3 |
| 20260506185531 | 67 | 26 | 10.0 | 18.0 | 0.00 | 0.00 | 0.00 | 58 | 1019.9 |
| 20260506184742 | 68 | 57 | 11.0 | 24.0 | 0.00 | 0.00 | 0.00 | 58 | 1020.3 |
| 20260506184102 | 67 | 31 | 5.0 | 31.0 | 0.00 | 0.00 | 0.00 | 58 | 1020.3 |
| 20260506183421 | 68 | 35 | 10.0 | 31.0 | 0.00 | 0.00 | 0.00 | 58 | 1020.3 |
| 20260506182742 | 68 | 71 | 11.0 | 28.0 | 0.00 | 0.00 | 0.00 | 55 | 1020.3 |
| 20260506182101 | 68 | 49 | 10.0 | 9.0 | 0.00 | 0.00 | 0.00 | 58 | 1020.3 |
| 20260506181310 | 67 | 73 | 10.0 | 22.0 | 0.00 | 0.00 | 0.00 | 59 | 1020.3 |
| 20260506180630 | 67 | 59 | 12.0 | 15.0 | 0.00 | 0.00 | 0.00 | 59 | 1020.3 |
| 20260506175841 | 67 | 46 | 7.0 | 28.0 | 0.00 | 0.00 | 0.00 | 58 | 1020.3 |
| 20260506175202 | 66 | 60 | 15.0 | 28.0 | 0.00 | 0.00 | 0.00 | 60 | 1020.3 |
| 20260506174522 | 66 | 49 | 5.0 | 9.0 | 0.00 | 0.00 | 0.00 | 60 | 1020.3 |
| 20260506173732 | 65 | 78 | 9.0 | 26.0 | 0.00 | 0.00 | 0.00 | 60 | 1020.3 |
| 20260506173052 | 66 | 350 | 11.0 | 10.0 | 0.00 | 0.00 | 0.00 | 60 | 1020.3 |
| 20260506172307 | 65 | 60 | 11.0 | 29.0 | 0.00 | 0.00 | 0.00 | 61 | 1020.3 |
| 20260506171624 | 64 | 38 | 12.0 | 27.0 | 0.00 | 0.00 | 0.00 | 62 | 1020.3 |
| 20260506170944 | 64 | 62 | 11.0 | 20.0 | 0.00 | 0.00 | 0.00 | 62 | 1020.3 |
| 20260506170122 | 63 | 34 | 7.0 | 28.0 | 0.00 | 0.00 | 0.00 | 64 | 1020.3 |
| 20260506165442 | 63 | 17 | 14.0 | 9.0 | 0.00 | 0.00 | 0.00 | 64 | 1020.3 |
| 20260506164652 | 62 | 19 | 7.0 | 21.0 | 0.00 | 0.00 | 0.00 | 66 | 1020.3 |
| 20260506164012 | 62 | 59 | 5.0 | 27.0 | 0.00 | 0.00 | 0.00 | 67 | 1020.3 |
| 20260506163332 | 62 | 33 | 10.0 | 22.0 | 0.00 | 0.00 | 0.00 | 66 | 1020.3 |
| 20260506162652 | 61 | 15 | 9.0 | 3.0 | 0.00 | 0.00 | 0.00 | 67 | 1020.3 |
| 20260506161905 | 60 | 13 | 8.0 | 22.0 | 0.00 | 0.00 | 0.00 | 69 | 1020.3 |
| 20260506161225 | 60 | 60 | 6.0 | 2.0 | 0.00 | 0.00 | 0.00 | 69 | 1020.3 |
| 20260506160435 | 59 | 29 | 3.0 | 9.0 | 0.00 | 0.00 | 0.00 | 72 | 1020.3 |
| 20260506155755 | 59 | 64 | 3.0 | 5.0 | 0.00 | 0.00 | 0.00 | 71 | 1020.3 |
| 20260506155006 | 59 | 32 | 2.0 | 11.0 | 0.00 | 0.00 | 0.00 | 74 | 1020.3 |
| 20260506154326 | 58 | 46 | 2.0 | 6.0 | 0.00 | 0.00 | 0.00 | 73 | 1020.3 |
| 20260506153646 | 58 | 72 | 2.0 | 10.0 | 0.00 | 0.00 | 0.00 | 74 | 1020.3 |
| 20260506153006 | 59 | 64 | 3.0 | 10.0 | 0.00 | 0.00 | 0.00 | 72 | 1020.3 |
| 20260506152326 | 58 | 29 | 1.0 | 6.0 | 0.00 | 0.00 | 0.00 | 72 | 1020.3 |
| 20260506151646 | 59 | 24 | 1.0 | 5.0 | 0.00 | 0.00 | 0.00 | 72 | 1020.3 |
| 20260506151006 | 59 | 34 | 1.0 | 5.0 | 0.00 | 0.00 | 0.00 | 71 | 1020.3 |
| 20260506150326 | 59 | 42 | 2.0 | 9.0 | 0.00 | 0.00 | 0.00 | 72 | 1020.3 |
| 20260506145646 | 58 | 30 | 3.0 | 9.0 | 0.00 | 0.00 | 0.00 | 74 | 1020.3 |
| 20260506145006 | 58 | 28 | 1.0 | 12.0 | 0.00 | 0.00 | 0.00 | 74 | 1019.9 |
| 20260506144326 | 58 | 39 | 2.0 | 12.0 | 0.00 | 0.00 | 0.00 | 75 | 1019.9 |
| 20260506143646 | 57 | 30 | 2.0 | 6.0 | 0.00 | 0.00 | 0.00 | 76 | 1019.9 |
| 20260506143006 | 57 | 37 | 2.0 | 5.0 | 0.00 | 0.00 | 0.00 | 78 | 1019.9 |
| 20260506142326 | 56 | 40 | 1.0 | 5.0 | 0.00 | 0.00 | 0.00 | 81 | 1019.9 |
| 20260506141646 | 55 | 45 | 1.0 | 5.0 | 0.00 | 0.00 | 0.00 | 82 | 1019.9 |
| 20260506141006 | 54 | 30 | 1.0 | 2.0 | 0.00 | 0.00 | 0.00 | 84 | 1019.6 |
| 20260506140326 | 54 | 51 | 1.0 | 2.0 | 0.00 | 0.00 | 0.00 | 84 | 1019.6 |
| 20260506135646 | 53 | 47 | 1.0 | 2.0 | 0.00 | 0.00 | 0.00 | 84 | 1019.6 |
| 20260506135007 | 53 | 62 | 1.0 | 1.0 | 0.00 | 0.00 | 0.00 | 84 | 1019.6 |
| 20260506134327 | 53 | 21 | 0.0 | 0.0 | 0.00 | 0.00 | 0.00 | 83 | 1019.6 |
| 20260506133538 | 53 | 242 | 1.0 | 2.0 | 0.00 | 0.00 | 0.00 | 83 | 1019.6 |
| 20260506132857 | 53 | 308 | 1.0 | 2.0 | 0.00 | 0.00 | 0.00 | 83 | 1019.6 |
| 20260506132218 | 53 | 117 | 1.0 | 2.0 | 0.00 | 0.00 | 0.00 | 83 | 1019.6 |
| 20260506131538 | 53 | 152 | 1.0 | 2.0 | 0.00 | 0.00 | 0.00 | 83 | 1019.2 |
| 20260506130858 | 53 | 56 | 1.0 | 2.0 | 0.00 | 0.00 | 0.00 | 82 | 1019.2 |
| 20260506130218 | 53 | 42 | 1.0 | 3.0 | 0.00 | 0.00 | 0.00 | 82 | 1019.2 |
| 20260506125538 | 53 | 172 | 1.0 | 3.0 | 0.00 | 0.00 | 0.00 | 82 | 1019.2 |
| 20260506124858 | 53 | 96 | 1.0 | 3.0 | 0.00 | 0.00 | 0.00 | 82 | 1019.2 |
| 20260506124217 | 53 | 47 | 1.0 | 2.0 | 0.00 | 0.00 | 0.00 | 82 | 1019.2 |
| 20260506123537 | 53 | 190 | 1.0 | 2.0 | 0.00 | 0.00 | 0.00 | 82 | 1018.9 |
| 20260506122857 | 53 | 264 | 1.0 | 2.0 | 0.00 | 0.00 | 0.00 | 82 | 1019.2 |
| 20260506122218 | 53 | 39 | 1.0 | 1.0 | 0.00 | 0.00 | 0.00 | 82 | 1018.9 |
| 20260506121538 | 53 | 41 | 0.0 | 1.0 | 0.00 | 0.00 | 0.00 | 82 | 1018.9 |
| 20260506120713 | 53 | 43 | 1.0 | 3.0 | 0.00 | 0.00 | 0.00 | 82 | 1018.9 |
| 20260506120033 | 53 | 50 | 0.0 | 1.0 | 0.00 | 0.00 | 0.00 | 82 | 1018.9 |
| 20260506115245 | 53 | 40 | 1.0 | 1.0 | 0.00 | 0.00 | 0.00 | 82 | 1018.9 |
| 20260506114605 | 53 | 49 | 1.0 | 1.0 | 0.00 | 0.00 | 0.00 | 82 | 1018.9 |
| 20260506113557 | 53 | 43 | 1.0 | 1.0 | 0.00 | 0.00 | 0.00 | 82 | 1018.9 |
| 20260506112809 | 53 | 41 | 1.0 | 1.0 | 0.00 | 0.00 | 0.00 | 82 | 1018.9 |
| 20260506112129 | 53 | 42 | 1.0 | 1.0 | 0.00 | 0.00 | 0.00 | 82 | 1018.9 |
| 20260506111449 | 53 | 88 | 1.0 | 2.0 | 0.00 | 0.00 | 0.00 | 82 | 1018.5 |
| 20260506110809 | 53 | 159 | 1.0 | 1.0 | 0.00 | 0.00 | 0.00 | 82 | 1018.5 |
| 20260506110021 | 53 | 103 | 1.0 | 1.0 | 0.00 | 0.00 | 0.00 | 82 | 1018.5 |
| 20260506105341 | 53 | 152 | 1.0 | 2.0 | 0.00 | 0.00 | 0.00 | 82 | 1018.5 |
| 20260506104701 | 53 | 42 | 1.0 | 2.0 | 0.00 | 0.00 | 0.00 | 81 | 1018.5 |
| 20260506104021 | 53 | 85 | 1.0 | 2.0 | 0.00 | 0.00 | 0.00 | 82 | 1018.5 |
| 20260506103341 | 53 | 89 | 1.0 | 1.0 | 0.00 | 0.00 | 0.00 | 82 | 1018.5 |
| 20260506102701 | 53 | 56 | 1.0 | 1.0 | 0.00 | 0.00 | 0.00 | 82 | 1018.5 |
| 20260506102021 | 53 | 51 | 1.0 | 2.0 | 0.00 | 0.00 | 0.00 | 81 | 1018.5 |
| 20260506101341 | 53 | 76 | 1.0 | 2.0 | 0.00 | 0.00 | 0.00 | 81 | 1018.2 |
| 20260506100702 | 53 | 33 | 0.0 | 2.0 | 0.00 | 0.00 | 0.00 | 81 | 1018.2 |
| 20260506100022 | 53 | 56 | 1.0 | 2.0 | 0.00 | 0.00 | 0.00 | 81 | 1018.2 |
| 20260506095342 | 53 | 93 | 1.0 | 3.0 | 0.00 | 0.00 | 0.00 | 81 | 1018.2 |
| 20260506094702 | 53 | 42 | 1.0 | 3.0 | 0.00 | 0.00 | 0.00 | 81 | 1018.5 |
| 20260506094022 | 53 | 34 | 0.0 | 1.0 | 0.00 | 0.00 | 0.00 | 81 | 1018.2 |
| 20260506093342 | 53 | 42 | 1.0 | 1.0 | 0.00 | 0.00 | 0.00 | 81 | 1018.5 |
| 20260506092702 | 53 | 39 | 1.0 | 3.0 | 0.00 | 0.00 | 0.00 | 81 | 1018.5 |
| 20260506092022 | 53 | 38 | 1.0 | 5.0 | 0.00 | 0.00 | 0.00 | 81 | 1018.5 |
| 20260506091342 | 53 | 41 | 1.0 | 2.0 | 0.00 | 0.00 | 0.00 | 82 | 1018.5 |
| 20260506090702 | 53 | 51 | 2.0 | 1.0 | 0.00 | 0.00 | 0.00 | 82 | 1018.5 |
| 20260506085656 | 52 | 60 | 1.0 | 2.0 | 0.00 | 0.00 | 0.00 | 82 | 1018.2 |
| 20260506085015 | 52 | 42 | 1.0 | 2.0 | 0.00 | 0.00 | 0.00 | 82 | 1018.2 |
| 20260506084335 | 52 | 56 | 1.0 | 4.0 | 0.00 | 0.00 | 0.00 | 82 | 1018.5 |
| 20260506083655 | 52 | 61 | 1.0 | 1.0 | 0.00 | 0.00 | 0.00 | 82 | 1018.5 |
| 20260506083016 | 52 | 41 | 1.0 | 3.0 | 0.00 | 0.00 | 0.00 | 82 | 1018.5 |
| 20260506082336 | 52 | 47 | 2.0 | 3.0 | 0.00 | 0.00 | 0.00 | 82 | 1018.2 |
| 20260506081655 | 52 | 49 | 1.0 | 3.0 | 0.00 | 0.00 | 0.00 | 81 | 1018.2 |
| 20260506081015 | 52 | 67 | 1.0 | 3.0 | 0.00 | 0.00 | 0.00 | 81 | 1018.2 |
| 20260506080335 | 52 | 49 | 1.0 | 2.0 | 0.00 | 0.00 | 0.00 | 81 | 1018.2 |
| 20260506072907 | 52 | 48 | 1.0 | 2.0 | 0.00 | 0.00 | 0.00 | 81 | 1018.2 |
| 20260506072227 | 52 | 50 | 1.0 | 0.0 | 0.00 | 0.00 | 0.00 | 81 | 1018.2 |
| 20260506071329 | 52 | 49 | 2.0 | 3.0 | 0.00 | 0.00 | 0.00 | 82 | 1018.2 |
| 20260506070649 | 52 | 184 | 1.0 | 3.0 | 0.00 | 0.00 | 0.00 | 82 | 1017.8 |
| 20260506062429 | 52 | 47 | 1.0 | 3.0 | 0.00 | 0.00 | 0.00 | 82 | 1017.8 |
| 20260506061749 | 52 | 62 | 2.0 | 3.0 | 0.00 | 0.00 | 0.00 | 83 | 1017.5 |
| 20260506061109 | 53 | 57 | 1.0 | 2.0 | 0.00 | 0.00 | 0.00 | 83 | 1017.5 |
| 20260506060429 | 53 | 229 | 1.0 | 2.0 | 0.00 | 0.00 | 0.00 | 83 | 1017.5 |
| 20260506050954 | 54 | 54 | 2.0 | 4.0 | 0.00 | 0.00 | 0.00 | 85 | 1017.1 |
| 20260506050314 | 54 | 10 | 2.0 | 5.0 | 0.00 | 0.00 | 0.00 | 85 | 1017.1 |
| 20260506044954 | 54 | 45 | 1.0 | 4.0 | 0.00 | 0.00 | 0.00 | 85 | 1017.1 |
| 20260506044314 | 54 | 326 | 1.0 | 4.0 | 0.00 | 0.00 | 0.00 | 85 | 1017.1 |
| 20260506043525 | 54 | 45 | 1.0 | 3.0 | 0.00 | 0.00 | 0.00 | 85 | 1016.8 |
| 20260506042845 | 54 | 40 | 1.0 | 1.0 | 0.00 | 0.00 | 0.00 | 85 | 1016.8 |
| 20260506042054 | 54 | 65 | 1.0 | 4.0 | 0.00 | 0.00 | 0.00 | 85 | 1016.8 |
| 20260506041414 | 54 | 76 | 1.0 | 4.0 | 0.00 | 0.00 | 0.00 | 85 | 1016.8 |
| 20260506040734 | 54 | 39 | 1.0 | 3.0 | 0.00 | 0.00 | 0.00 | 85 | 1016.8 |
| 20260506040054 | 54 | 61 | 1.0 | 3.0 | 0.00 | 0.00 | 0.00 | 84 | 1016.8 |
| 20260506035414 | 54 | 166 | 1.0 | 2.0 | 0.00 | 0.00 | 0.00 | 84 | 1016.5 |
| 20260506034734 | 54 | 35 | 1.0 | 3.0 | 0.00 | 0.00 | 0.00 | 84 | 1016.5 |
| 20260506034054 | 54 | 24 | 1.0 | 3.0 | 0.00 | 0.00 | 0.00 | 84 | 1016.5 |
| 20260506033415 | 54 | 42 | 1.0 | 2.0 | 0.00 | 0.00 | 0.00 | 84 | 1016.1 |
| 20260506032553 | 54 | 73 | 1.0 | 2.0 | 0.00 | 0.00 | 0.00 | 84 | 1016.1 |
| 20260506031913 | 54 | 33 | 1.0 | 1.0 | 0.00 | 0.00 | 0.00 | 83 | 1016.1 |
| 20260506031125 | 54 | 42 | 1.0 | 1.0 | 0.00 | 0.00 | 0.00 | 82 | 1015.8 |
| 20260506030226 | 55 | 26 | 1.0 | 5.0 | 0.00 | 0.00 | 0.00 | 81 | 1015.8 |
| 20260506025547 | 55 | 45 | 1.0 | 5.0 | 0.00 | 0.00 | 0.00 | 81 | 1015.8 |
| 20260506024907 | 55 | 28 | 1.0 | 4.0 | 0.00 | 0.00 | 0.00 | 81 | 1015.8 |
| 20260506024226 | 55 | 54 | 1.0 | 7.0 | 0.00 | 0.00 | 0.00 | 80 | 1015.8 |
| 20260506023546 | 56 | 6 | 1.0 | 4.0 | 0.00 | 0.00 | 0.00 | 80 | 1015.8 |
| 20260506022906 | 56 | 46 | 2.0 | 4.0 | 0.00 | 0.00 | 0.00 | 79 | 1015.8 |
| 20260506022226 | 56 | 103 | 2.0 | 7.0 | 0.00 | 0.00 | 0.00 | 78 | 1015.8 |
| 20260506021546 | 56 | 22 | 2.0 | 7.0 | 0.00 | 0.00 | 0.00 | 77 | 1015.8 |
| 20260506020906 | 56 | 268 | 2.0 | 6.0 | 0.00 | 0.00 | 0.00 | 76 | 1015.4 |
| 20260506020226 | 56 | 344 | 1.0 | 5.0 | 0.00 | 0.00 | 0.00 | 76 | 1015.4 |
| 20260506015546 | 57 | 65 | 1.0 | 6.0 | 0.00 | 0.00 | 0.00 | 76 | 1015.4 |
| 20260506014906 | 57 | 356 | 1.0 | 4.0 | 0.00 | 0.00 | 0.00 | 76 | 1015.1 |
| 20260506014226 | 57 | 344 | 1.0 | 4.0 | 0.00 | 0.00 | 0.00 | 75 | 1015.1 |
| 20260506013546 | 57 | 47 | 1.0 | 6.0 | 0.00 | 0.00 | 0.00 | 75 | 1015.1 |
| 20260506012906 | 57 | 49 | 3.0 | 6.0 | 0.00 | 0.00 | 0.00 | 75 | 1015.1 |
| 20260506012226 | 57 | 64 | 3.0 | 6.0 | 0.00 | 0.00 | 0.00 | 75 | 1015.1 |
| 20260506011546 | 57 | 45 | 1.0 | 3.0 | 0.00 | 0.00 | 0.00 | 75 | 1015.1 |
| 20260506010906 | 57 | 45 | 1.0 | 1.0 | 0.00 | 0.00 | 0.00 | 74 | 1015.1 |
| 20260506010117 | 57 | 337 | 1.0 | 5.0 | 0.00 | 0.00 | 0.00 | 74 | 1015.1 |
| 20260506005437 | 58 | 29 | 1.0 | 5.0 | 0.00 | 0.00 | 0.00 | 74 | 1015.1 |
| 20260506004757 | 58 | 26 | 1.0 | 5.0 | 0.00 | 0.00 | 0.00 | 74 | 1015.1 |
| 20260506004117 | 58 | 53 | 1.0 | 5.0 | 0.00 | 0.00 | 0.00 | 74 | 1015.1 |
| 20260506003437 | 58 | 24 | 1.0 | 6.0 | 0.00 | 0.00 | 0.00 | 75 | 1015.1 |
| 20260506002757 | 58 | 36 | 1.0 | 5.0 | 0.00 | 0.00 | 0.00 | 75 | 1015.1 |
| 20260506002117 | 58 | 32 | 1.0 | 5.0 | 0.00 | 0.00 | 0.00 | 76 | 1015.1 |
| 20260506001437 | 58 | 30 | 1.0 | 7.0 | 0.00 | 0.00 | 0.00 | 75 | 1015.1 |
| 20260506000758 | 58 | 33 | 1.0 | 7.0 | 0.00 | 0.00 | 0.00 | 75 | 1014.7 |
| 20260506000118 | 58 | 28 | 2.0 | 1.0 | 0.00 | 0.00 | 0.00 | 75 | 1014.7 |
| 20260505235329 | 58 | 39 | 2.0 | 4.0 | 0.00 | 0.00 | 0.00 | 75 | 1015.1 |
| 20260505234649 | 58 | 80 | 2.0 | 5.0 | 0.00 | 0.00 | 0.00 | 74 | 1015.1 |
| 20260505234009 | 58 | 18 | 1.0 | 7.0 | 0.00 | 0.00 | 0.00 | 74 | 1015.1 |
| 20260505233329 | 59 | 50 | 2.0 | 7.0 | 0.00 | 0.00 | 0.00 | 73 | 1014.7 |